Weather History for Springfield, MO

Change the Weather History Date:

Friday, March 8, 2013

  Actual Average Record
Temperature  
Mean Temperature 47 °F 44 °F  
Max Temperature 58 °F 55 °F 82 °F (1925)
Min Temperature 36 °F 33 °F 2 °F (1996)
Degree Days  
Heating Degree Days 18 21  
Month to date heating degree days 215 177  
Since 1 July heating degree days 3513 3770  
Cooling Degree Days 0 0  
Month to date cooling degree days 0 0  
Year to date cooling degree days 0 0  
Moisture  
Dew Point 32 °F    
Average Humidity 58    
Maximum Humidity 76    
Minimum Humidity 40    
Precipitation  
Precipitation 0.05 in 0.11 in 1.58 in (1908)
Month to date precipitation 0.08 0.86  
Year to date precipitation 5.42 5.85  
Snow  
Snow 0.00 in - - ()
Month to date snowfall T  
Since 1 July snowfall 7.0  
Snow Depth 0.00 in    
Sea Level Pressure  
Sea Level Pressure 30.18 in    
Wind  
Wind Speed 19 mph (SSE)    
Max Wind Speed 28 mph    
Max Gust Speed 33 mph    
Visibility 10 miles    
Events Rain    
T = Trace of Precipitation, MM = Missing Value Source: NWS Daily Summary

Daily Weather History Graph

Daily Weather History Graph

Search for Another Location

Airport:

Trip Planner

Search our weather history database for the weather conditions in past years. The results will help you decide how hot, cold, wet, or windy it might be!

Date:

Astronomy

Mar. 08, 2013 Rise Set
Actual Time 6:34 AM CST 6:14 PM CST
Civil Twilight 6:08 AM CST 6:40 PM CST
Nautical Twilight 5:38 AM CST 7:10 PM CST
Astronomical Twilight 5:08 AM CST 7:41 PM CST
Moon 4:15 AM CST (3/8) 3:13 PM CST (3/8)
Length of Visible Light 12h 32m
Length of Day
11h 40m
Waning Crescent, 11% of the Moon is Illuminated
Mar 8
Waning Crescent
Mar 11
New
Mar 19
First Quarter
Mar 27
Full
Apr 2
Last Quarter

Hourly Weather History & Observations

Time (CST) Temp. Windchill Dew Point Humidity Pressure Visibility Wind Dir Wind Speed Gust Speed Precip Events Conditions
12:52 AM 42.1 °F 34.5 °F 30.9 °F 65% 30.23 in 10.0 mi SE 15.0 mph - N/A   Clear
1:52 AM 39.9 °F 31.8 °F 30.9 °F 70% 30.25 in 10.0 mi SSE 15.0 mph - N/A   Clear
2:52 AM 39.0 °F 30.6 °F 30.9 °F 73% 30.24 in 10.0 mi SSE 15.0 mph - N/A   Clear
3:52 AM 39.0 °F 30.3 °F 30.9 °F 73% 30.24 in 10.0 mi SSE 16.1 mph - N/A   Clear
4:52 AM 37.9 °F 28.2 °F 30.9 °F 76% 30.23 in 10.0 mi SSE 18.4 mph - N/A   Clear
5:52 AM 37.0 °F 27.4 °F 30.0 °F 76% 30.27 in 10.0 mi SSE 17.3 mph - N/A   Clear
6:52 AM 37.0 °F 26.4 °F 30.0 °F 76% 30.26 in 9.0 mi SE 20.7 mph - N/A   Clear
7:52 AM 39.0 °F 28.5 °F 30.0 °F 70% 30.27 in 10.0 mi SSE 23.0 mph - N/A   Clear
8:52 AM 43.0 °F 34.0 °F 30.9 °F 62% 30.26 in 10.0 mi SSE 21.9 mph 28.8 mph N/A   Clear
9:52 AM 48.0 °F - 32.0 °F 54% 30.26 in 10.0 mi SSE 19.6 mph - N/A   Clear
10:52 AM 50.0 °F - 32.0 °F 50% 30.24 in 10.0 mi SSE 16.1 mph - N/A   Clear
11:52 AM 53.1 °F - 32.0 °F 45% 30.23 in 10.0 mi SSE 18.4 mph 25.3 mph N/A   Clear
12:52 PM 57.0 °F - 33.1 °F 40% 30.21 in 10.0 mi SSE 18.4 mph - N/A   Clear
1:52 PM 57.0 °F - 34.0 °F 42% 30.19 in 10.0 mi SSE 18.4 mph - N/A   Clear
2:52 PM 57.0 °F - 33.1 °F 40% 30.14 in 10.0 mi ESE 18.4 mph - N/A   Clear
3:52 PM 55.9 °F - 33.1 °F 42% 30.13 in 10.0 mi SE 15.0 mph - N/A   Clear
4:52 PM 55.0 °F - 33.1 °F 43% 30.13 in 10.0 mi SE 15.0 mph - N/A   Overcast
5:52 PM 53.1 °F - 33.1 °F 47% 30.13 in 10.0 mi SE 20.7 mph 24.2 mph N/A   Overcast
6:52 PM 52.0 °F - 33.1 °F 49% 30.12 in 10.0 mi SE 18.4 mph 24.2 mph 0.00 in   Overcast
7:52 PM 52.0 °F - 33.1 °F 49% 30.11 in 10.0 mi SE 19.6 mph - N/A   Overcast
8:52 PM 51.1 °F - 32.0 °F 48% 30.10 in 10.0 mi SSE 21.9 mph 28.8 mph N/A   Partly Cloudy
9:52 PM 50.0 °F - 32.0 °F 50% 30.10 in 10.0 mi SSE 24.2 mph - 0.00 in   Mostly Cloudy
10:52 PM 48.9 °F - 33.1 °F 54% 30.07 in 10.0 mi SSE 23.0 mph 29.9 mph 0.00 in   Overcast
11:52 PM 45.0 °F 36.4 °F 39.0 °F 80% 30.06 in 3.0 mi SSE 23.0 mph 33.4 mph 0.05 in Rain Heavy Rain